Santa Maria, CA

6:48 AM PST on February 08, 2016 (GMT -0800)
Santa Maria Public Airport / Captain G. Allan Hancock Field

Weather History for KSMX - November, 2012

Change the Weather History Date:

Friday, November 23, 2012

  Actual Average Record
Temperature  
Mean Temperature 62 °F 54 °F  
Max Temperature 79 °F 67 °F 91 °F (1933)
Min Temperature 44 °F 42 °F 25 °F (1933)
Degree Days  
Heating Degree Days 3 11  
Month to date heating degree days 152 200  
Since 1 July heating degree days 410 564  
Cooling Degree Days 0 0  
Month to date cooling degree days 16 0  
Year to date cooling degree days 120 100  
Growing Degree Days 7 (Base 50)    
Moisture  
Dew Point 45 °F    
Average Humidity 58    
Maximum Humidity 93    
Minimum Humidity 23    
Precipitation  
Precipitation 0.00 in 0.05 in 1.88 in (1965)
Month to date precipitation 0.49 0.99  
Year to date precipitation 7.94 11.49  
Since 1 July precipitation 0.74  
Sea Level Pressure  
Sea Level Pressure 30.14 in    
Wind  
Wind Speed 3 mph (South)    
Max Wind Speed 8 mph    
Max Gust Speed -    
Visibility 10 miles    
Events      
T = Trace of Precipitation, MM = Missing Value Source: NWS Daily Summary

Daily Weather History Graph

Daily Weather History Graph

Search for Another Location

Airport or City:

Trip Planner

Search our weather history database for the weather conditions in past years. The results will help you decide how hot, cold, wet, or windy it might be!

Date:

Astronomy

Nov. 23, 2012 Rise Set
Actual Time 6:44 AM PST 4:52 PM PST
Civil Twilight 6:17 AM PST 5:19 PM PST
Nautical Twilight 5:46 AM PST 5:50 PM PST
Astronomical Twilight 5:15 AM PST 6:20 PM PST
Moon 2:01 PM PST (11/23) 2:17 AM PST (11/23)
Length of Visible Light 11h 02m
Length of Day
10h 07m
Waxing Gibbous, 80% of the Moon is Illuminated
Nov 23
Waxing Gibbous
Nov 28
Full
Dec 6
Last Quarter
Dec 13
New
Dec 19
First Quarter

Hourly Weather History & Observations

Time (PST) Temp. Dew Point Humidity Pressure Visibility Wind Dir Wind Speed Gust Speed Precip Events Conditions
12:51 AM 46.9 °F 45.0 °F 93% 30.14 in 10.0 mi Calm Calm - N/A   Clear
1:51 AM 46.9 °F 44.1 °F 90% 30.14 in 10.0 mi Calm Calm - N/A   Clear
2:51 AM 46.9 °F 44.1 °F 90% 30.15 in 10.0 mi SSE 4.6 mph - N/A   Clear
3:51 AM 46.0 °F 44.1 °F 93% 30.14 in 10.0 mi Calm Calm - N/A   Clear
4:51 AM 46.9 °F 44.1 °F 90% 30.14 in 10.0 mi SSE 3.5 mph - N/A   Clear
5:51 AM 46.0 °F 43.0 °F 89% 30.15 in 10.0 mi Calm Calm - N/A   Clear
6:51 AM 46.0 °F 42.1 °F 86% 30.17 in 10.0 mi Calm Calm - N/A   Clear
7:51 AM 50.0 °F 46.0 °F 86% 30.18 in 10.0 mi Calm Calm - N/A   Clear
8:51 AM 59.0 °F 46.0 °F 62% 30.19 in 10.0 mi Calm Calm - N/A   Clear
9:51 AM 68.0 °F 43.0 °F 40% 30.18 in 10.0 mi Calm Calm - N/A   Clear
10:51 AM 73.0 °F 42.1 °F 33% 30.17 in 10.0 mi Calm Calm - N/A   Clear
11:51 AM 75.0 °F 39.9 °F 28% 30.14 in 10.0 mi West 4.6 mph - N/A   Clear
12:51 PM 78.1 °F 37.9 °F 24% 30.11 in 10.0 mi West 5.8 mph - N/A   Clear
1:51 PM 79.0 °F 43.0 °F 28% 30.10 in 10.0 mi Variable 5.8 mph - N/A   Clear
2:31 PM 73.4 °F 50.0 °F 44% 30.09 in 10.0 mi NW 8.1 mph - N/A   Clear
2:51 PM 73.0 °F 50.0 °F 44% 30.10 in 10.0 mi NW 8.1 mph - N/A   Clear
3:51 PM 70.0 °F 46.9 °F 44% 30.11 in 10.0 mi NW 6.9 mph - N/A   Clear
4:51 PM 60.1 °F 51.1 °F 72% 30.12 in 10.0 mi NW 4.6 mph - N/A   Clear
5:51 PM 57.9 °F 52.0 °F 81% 30.12 in 10.0 mi SSE 3.5 mph - N/A   Clear
6:51 PM 55.9 °F 48.0 °F 75% 30.12 in 10.0 mi SSE 4.6 mph - N/A   Clear
7:51 PM 54.0 °F 46.9 °F 77% 30.13 in 10.0 mi SE 3.5 mph - N/A   Clear
8:51 PM 54.0 °F 46.9 °F 77% 30.14 in 10.0 mi ESE 3.5 mph - N/A   Clear
9:51 PM 52.0 °F 46.0 °F 80% 30.14 in 10.0 mi SE 4.6 mph - N/A   Clear
10:51 PM 51.1 °F 45.0 °F 80% 30.13 in 10.0 mi SE 3.5 mph - N/A   Clear
11:51 PM 48.9 °F 44.1 °F 83% 30.13 in 10.0 mi ESE 3.5 mph - N/A   Clear